�ϑ��N����,2019/9/26,,,
�ϑ���,���؍P�C,,,
�ϑ��n�_,12,,,
���x�v�ԍ�,34,,,
,,,,
����,�C��,����,����,���l
9:30:00,-999,-999,-999,
9:31:00,-999,-999,-999,
9:32:00,-999,-999,-999,
9:33:00,-999,-999,-999,
9:34:00,-999,-999,-999,
9:35:00,-999,-999,-999,
9:36:00,-999,-999,-999,
9:37:00,25.8,2,2,
9:38:00,26.1,1,1,
9:39:00,26.2,2,3,
9:40:00,26.1,1,1,
9:41:00,26.1,2,2,
9:42:00,26.2,0,0,
9:43:00,26.6,2,3,
9:44:00,26.8,0,0,
9:45:00,27.1,2,-999,
9:46:00,26.4,2,-999,
9:47:00,26.3,2,-999,
9:48:00,26,-999,-999,
9:49:00,26,-999,-999,
9:50:00,-999,-999,-999,
9:51:00,-999,-999,-999,
9:52:00,-999,-999,-999,
9:53:00,-999,-999,-999,
9:54:00,-999,-999,-999,
9:55:00,-999,-999,-999,
9:56:00,28.5,1,2,
9:57:00,26.5,1,2,
9:58:00,27.8,0,0,
9:59:00,28.2,2,1,
10:00:00,26.2,2,1,
10:01:00,25.5,2,3,
10:02:00,26,1,0,
10:03:00,26.5,2,3,
10:04:00,26,2,2,
10:05:00,26.2,2,3,
10:06:00,27.7,1,3,
10:07:00,28,1,3,
10:08:00,27.7,1,2,
10:09:00,28.2,2,2,
10:10:00,28.5,2,2,
10:11:00,28.4,0,0,
10:12:00,28,1,3,
10:13:00,27.5,2,2,
10:14:00,27.8,2,2,
10:15:00,27.6,0,0,
10:16:00,27,3,3,
10:17:00,26,2,2,
10:18:00,25.8,2,0,
10:19:00,27,2,2,
10:20:00,26,2,3,
10:21:00,26.5,2,2,
10:22:00,27.8,0,0,
10:23:00,-999,-999,-999,
10:24:00,-999,-999,-999,
10:25:00,27,2,1,
10:26:00,26.5,2,3,
10:27:00,26.8,2,1,
10:28:00,27.2,2,0,
10:29:00,28,3,2,
10:30:00,28,4,1,
10:31:00,27.8,0,3,
10:32:00,28.3,5,0,
10:33:00,28,6,3,
10:34:00,27.5,3,1,
10:35:00,28,2,1,
10:36:00,28.2,5,2,
10:37:00,27.8,8,1,
10:38:00,28.4,2,2,
10:39:00,28,1,3,
10:40:00,27.7,2,3,
10:41:00,27.2,3,0,
10:42:00,27,3,2,
10:43:00,27.2,1,2,
10:44:00,27.5,1,3,
10:45:00,27.3,1,2,
10:46:00,27.3,2,3,
10:47:00,27,2,0,
10:48:00,27.2,2,3,
10:49:00,27.5,2,2,
10:50:00,27.1,3,3,
10:51:00,27,2,1,
10:52:00,27.5,3,1,
10:53:00,27.2,3,1,
10:54:00,28,5,2,
10:55:00,27.6,2,3,
10:56:00,27.6,3,3,
10:57:00,27.9,6,3,
10:58:00,28,0,0,
10:59:00,28,6,1,
11:00:00,28,0,0,
11:01:00,28.2,4,2,
11:02:00,28.2,2,0,
11:03:00,28.3,2,1,
11:04:00,28,2,3,
11:05:00,28,3,1,
11:06:00,28,2,3,
11:07:00,28.1,2,3,
11:08:00,27.8,3,3,
11:09:00,27.3,3,0,
11:10:00,27.5,2,1,
11:11:00,28,3,3,
11:12:00,27.5,2,1,
11:13:00,27.6,0,0,
11:14:00,28,7,0,
11:15:00,28,7,1,
11:16:00,28.2,1,1,
11:17:00,28,1,1,
11:18:00,28.2,2,0,
11:19:00,28.4,3,2,
11:20:00,28.8,7,1,
11:21:00,29,0,0,
11:22:00,29.4,6,2,
11:23:00,29,3,3,
11:24:00,28.5,2,1,
11:25:00,28.5,3,3,
11:26:00,28.7,3,1,
11:27:00,28.3,3,2,
11:28:00,28.5,3,3,
11:29:00,28.2,2,3,
11:30:00,28.1,2,1,
